LHA14L EETN-EDDP

Flight info

Callsign LHA14L
Flight time 1h 50m
Altitude 38000
Route LONSA DCT GORPI Z80 TILAV L87 PESEL DCT RAKIT M725 OBANI Z36 BEBKU T950 LUXBO LUXBO1R
Aircraft A320/M-SDE1E2FGIRWYZE3/LB1

Departure

Time 2026-05-07 16:45
Airport Lennart Meri Tallinn Airport (EETN)

Arrival

Time 2026-05-07 18:35
Airport Leipzig/Halle Airport (EDDP)
Time Latitude Longitude Altitude Speed Heading
2026-05-07 16:19 59.41585 24.80278 162 ft 0 kts
2026-05-07 16:38 59.41567 24.80278 162 ft 4 kts 358°
2026-05-07 16:38 59.41540 24.80278 162 ft 4 kts 15°
2026-05-07 16:38 59.41527 24.80262 162 ft 1 kts 90°
2026-05-07 16:39 59.41527 24.80261 162 ft 0 kts 90°
2026-05-07 16:41 59.41527 24.80276 162 ft 5 kts 90°
2026-05-07 16:41 59.41527 24.80343 162 ft 5 kts 90°
2026-05-07 16:41 59.41512 24.80445 162 ft 8 kts 133°
2026-05-07 16:41 59.41465 24.80467 162 ft 7 kts 178°
2026-05-07 16:42 59.41433 24.80490 162 ft 0 kts 142°
2026-05-07 16:42 59.41433 24.80491 162 ft 0 kts 142°
2026-05-07 16:43 59.41433 24.80492 162 ft 0 kts 142°
2026-05-07 16:43 59.41425 24.80504 162 ft 9 kts 139°
2026-05-07 16:43 59.41364 24.80621 160 ft 13 kts 135°
2026-05-07 16:44 59.41333 24.80778 160 ft 14 kts 92°
2026-05-07 16:44 59.41331 24.81354 163 ft 81 kts 90°
2026-05-07 16:44 59.41328 24.82922 162 ft 145 kts 90°
2026-05-07 16:44 59.41333 24.85038 728 ft 156 kts 88°
2026-05-07 16:45 59.41314 24.87173 1590 ft 160 kts 95°
2026-05-07 16:45 59.40775 24.89222 2059 ft 188 kts 138°
2026-05-07 16:45 59.39481 24.90153 2459 ft 218 kts 181°
2026-05-07 16:45 59.37930 24.89340 2981 ft 245 kts 200°
2026-05-07 16:46 59.36283 24.88013 3751 ft 262 kts 203°
2026-05-07 16:46 59.34600 24.86557 4845 ft 267 kts 204°
2026-05-07 16:46 59.32894 24.85073 5950 ft 270 kts 204°
2026-05-07 16:46 59.31164 24.83588 7001 ft 273 kts 204°
2026-05-07 16:47 59.29407 24.82106 8040 ft 276 kts 204°
2026-05-07 16:47 59.27750 24.80213 9068 ft 278 kts 223°
2026-05-07 16:47 59.26488 24.77356 10087 ft 279 kts 233°
2026-05-07 16:47 59.25270 24.74260 10670 ft 299 kts 234°
2026-05-07 16:48 59.23963 24.70896 11060 ft 322 kts 234°
2026-05-07 16:48 59.22590 24.67356 11787 ft 330 kts 234°
2026-05-07 16:48 59.21193 24.63769 12691 ft 333 kts 234°
2026-05-07 16:48 59.19780 24.60157 13589 ft 336 kts 234°
2026-05-07 16:49 59.18355 24.56531 14444 ft 338 kts 234°
2026-05-07 16:49 59.16921 24.52894 15282 ft 339 kts 234°
2026-05-07 16:49 59.15479 24.49246 16115 ft 340 kts 234°
2026-05-07 16:49 59.14031 24.45589 16951 ft 341 kts 234°
2026-05-07 16:50 59.12576 24.41923 17768 ft 343 kts 234°
2026-05-07 16:50 59.11113 24.38245 18545 ft 344 kts 234°
2026-05-07 16:50 59.09647 24.34552 19232 ft 346 kts 234°
2026-05-07 16:50 59.08175 24.30843 19904 ft 347 kts 234°
2026-05-07 16:51 59.06698 24.27123 20572 ft 348 kts 234°
2026-05-07 16:51 59.05210 24.23389 21239 ft 350 kts 233°
2026-05-07 16:51 59.03737 24.19692 21874 ft 352 kts 233°
2026-05-07 16:51 59.02234 24.15933 22506 ft 353 kts 233°
2026-05-07 16:52 59.00719 24.12159 23134 ft 355 kts 233°
2026-05-07 16:52 58.99193 24.08377 23725 ft 357 kts 232°
2026-05-07 16:52 58.97655 24.04573 24226 ft 359 kts 232°
2026-05-07 16:52 58.96110 24.00751 24697 ft 362 kts 232°
2026-05-07 16:53 58.94555 23.96895 25158 ft 364 kts 232°
2026-05-07 16:53 58.92989 23.93011 25613 ft 367 kts 232°
2026-05-07 16:53 58.91409 23.89109 26055 ft 370 kts 232°
2026-05-07 16:53 58.89817 23.85183 26497 ft 372 kts 232°
2026-05-07 16:54 58.88212 23.81233 26934 ft 375 kts 232°
2026-05-07 16:54 58.86595 23.77259 27368 ft 378 kts 232°
2026-05-07 16:54 58.84964 23.73258 27793 ft 380 kts 232°
2026-05-07 16:54 58.83319 23.69232 28212 ft 383 kts 232°
2026-05-07 16:55 58.81663 23.65184 28613 ft 386 kts 231°
2026-05-07 16:55 58.79995 23.61107 29011 ft 388 kts 231°
2026-05-07 16:55 58.78315 23.57006 29384 ft 391 kts 231°
2026-05-07 16:55 58.76622 23.52880 29754 ft 394 kts 231°
2026-05-07 16:56 58.74915 23.48731 30114 ft 396 kts 231°
2026-05-07 16:56 58.73198 23.44563 30427 ft 399 kts 231°
2026-05-07 16:56 58.69724 23.36182 31058 ft 402 kts 231°
2026-05-07 16:57 58.67980 23.31986 31496 ft 401 kts 231°
2026-05-07 16:57 58.66244 23.27816 31950 ft 399 kts 231°
2026-05-07 16:57 58.64511 23.23662 32402 ft 398 kts 231°
2026-05-07 16:57 58.62786 23.19532 32848 ft 396 kts 230°
2026-05-07 16:58 58.61064 23.15411 33298 ft 395 kts 230°
2026-05-07 16:58 58.59348 23.11310 33745 ft 394 kts 230°
2026-05-07 16:58 58.57638 23.07227 34174 ft 392 kts 230°
2026-05-07 16:58 58.55930 23.03155 34529 ft 392 kts 230°
2026-05-07 16:59 58.54221 22.99085 34853 ft 392 kts 230°
2026-05-07 16:59 58.52507 22.95014 35148 ft 393 kts 230°
2026-05-07 16:59 58.50785 22.90936 35426 ft 394 kts 230°
2026-05-07 16:59 58.49059 22.86850 35700 ft 396 kts 231°
2026-05-07 17:00 58.47327 22.82756 35960 ft 396 kts 231°
2026-05-07 17:00 58.45613 22.78718 36232 ft 397 kts 231°
2026-05-07 17:00 58.43868 22.74620 36498 ft 398 kts 231°
2026-05-07 17:00 58.42117 22.70517 36765 ft 399 kts 231°
2026-05-07 17:01 58.40363 22.66416 37025 ft 399 kts 231°
2026-05-07 17:01 58.38605 22.62310 37292 ft 400 kts 231°
2026-05-07 17:01 58.36845 22.58202 37554 ft 400 kts 231°
2026-05-07 17:01 58.35084 22.54087 37802 ft 401 kts 231°
2026-05-07 17:02 58.33319 22.49968 38026 ft 402 kts 231°
2026-05-07 17:02 58.31547 22.45851 38082 ft 402 kts 231°
2026-05-07 17:02 58.27997 22.37632 38087 ft 402 kts 231°
2026-05-07 17:03 58.24444 22.29417 38083 ft 402 kts 231°
2026-05-07 17:03 58.20881 22.21220 38094 ft 403 kts 231°
2026-05-07 17:04 58.17311 22.13032 38078 ft 403 kts 231°
2026-05-07 17:04 58.13734 22.04862 38092 ft 403 kts 231°
2026-05-07 17:05 58.10148 21.96697 38087 ft 404 kts 231°
2026-05-07 17:05 58.06581 21.88594 38090 ft 404 kts 231°
2026-05-07 17:06 58.02982 21.80450 38094 ft 404 kts 231°
2026-05-07 17:06 57.99371 21.72304 38097 ft 405 kts 231°
2026-05-07 17:07 57.95744 21.64174 38087 ft 405 kts 230°
2026-05-07 17:07 57.92109 21.56058 38100 ft 406 kts 230°
2026-05-07 17:08 57.88473 21.47941 38100 ft 406 kts 230°
2026-05-07 17:08 57.84833 21.39832 38103 ft 406 kts 230°
2026-05-07 17:09 57.81179 21.31732 38108 ft 407 kts 230°
2026-05-07 17:09 57.77515 21.23643 38108 ft 407 kts 230°
2026-05-07 17:10 57.73842 21.15559 38103 ft 408 kts 230°
2026-05-07 17:10 57.70156 21.07481 38108 ft 408 kts 230°
2026-05-07 17:11 57.66461 20.99411 38108 ft 409 kts 230°
2026-05-07 17:11 57.62756 20.91343 38110 ft 409 kts 230°
2026-05-07 17:12 57.59041 20.83286 38113 ft 410 kts 230°
2026-05-07 17:12 57.55318 20.75234 38118 ft 410 kts 230°
2026-05-07 17:13 57.52215 20.68551 38120 ft 411 kts 230°
2026-05-07 17:13 57.48476 20.60508 38120 ft 411 kts 230°
2026-05-07 17:14 57.44727 20.52473 38120 ft 412 kts 230°
2026-05-07 17:14 57.40966 20.44453 38123 ft 412 kts 230°
2026-05-07 17:15 57.37199 20.36438 38002 ft 412 kts 230°
2026-05-07 17:15 57.33427 20.28427 38004 ft 413 kts 229°
2026-05-07 17:16 57.29647 20.20438 38008 ft 413 kts 229°
2026-05-07 17:16 57.25858 20.12449 38004 ft 413 kts 229°
2026-05-07 17:17 57.22058 20.04484 38009 ft 414 kts 229°
2026-05-07 17:17 57.18252 19.96519 38002 ft 414 kts 229°
2026-05-07 17:18 57.14441 19.88568 38006 ft 414 kts 229°
2026-05-07 17:18 57.10618 19.80639 38005 ft 414 kts 229°
2026-05-07 17:19 57.06787 19.72714 38004 ft 414 kts 229°
2026-05-07 17:19 57.02955 19.64796 38007 ft 415 kts 229°
2026-05-07 17:20 56.99116 19.56897 38008 ft 415 kts 229°
2026-05-07 17:20 56.95268 19.49008 38005 ft 415 kts 229°
2026-05-07 17:21 56.91439 19.41181 38003 ft 415 kts 229°
2026-05-07 17:21 56.87579 19.33316 38005 ft 416 kts 229°
2026-05-07 17:22 56.83704 19.25465 38001 ft 416 kts 229°
2026-05-07 17:22 56.79827 19.17620 38002 ft 416 kts 229°
2026-05-07 17:23 56.75941 19.09792 38004 ft 417 kts 229°
2026-05-07 17:23 56.72043 19.01972 38009 ft 417 kts 229°
2026-05-07 17:24 56.68149 18.94149 38014 ft 417 kts 229°
2026-05-07 17:24 56.64242 18.86343 38010 ft 418 kts 228°
2026-05-07 17:25 56.60319 18.78554 38017 ft 418 kts 228°
2026-05-07 17:25 56.56392 18.70773 38016 ft 418 kts 228°
2026-05-07 17:26 56.52459 18.62999 38018 ft 419 kts 228°
2026-05-07 17:26 56.48516 18.55239 38016 ft 419 kts 228°
2026-05-07 17:27 56.44588 18.47543 38025 ft 419 kts 228°
2026-05-07 17:27 56.40634 18.39795 38025 ft 419 kts 228°
2026-05-07 17:28 56.36673 18.32059 38027 ft 420 kts 228°
2026-05-07 17:28 56.32702 18.24335 38040 ft 420 kts 228°
2026-05-07 17:29 56.28721 18.16631 38040 ft 420 kts 228°
2026-05-07 17:29 56.24732 18.08936 38042 ft 420 kts 228°
2026-05-07 17:30 56.20743 18.01250 38041 ft 421 kts 228°
2026-05-07 17:30 56.16744 17.93574 38044 ft 421 kts 227°
2026-05-07 17:31 56.12736 17.85916 38041 ft 421 kts 227°
2026-05-07 17:31 56.08725 17.78266 38040 ft 421 kts 227°
2026-05-07 17:32 56.04706 17.70627 38043 ft 422 kts 227°
2026-05-07 17:32 56.00710 17.63054 38045 ft 422 kts 227°
2026-05-07 17:33 55.96673 17.55439 38048 ft 422 kts 227°
2026-05-07 17:33 55.92603 17.47790 38050 ft 422 kts 227°
2026-05-07 17:34 55.88581 17.40254 38048 ft 423 kts 227°
2026-05-07 17:34 55.84528 17.32673 38050 ft 423 kts 227°
2026-05-07 17:35 55.80467 17.25101 38057 ft 423 kts 227°
2026-05-07 17:35 55.76399 17.17543 38051 ft 423 kts 227°
2026-05-07 17:36 55.72319 17.09998 38060 ft 424 kts 227°
2026-05-07 17:36 55.68234 17.02463 38004 ft 424 kts 226°
2026-05-07 17:37 55.64136 16.94926 38017 ft 426 kts 226°
2026-05-07 17:37 55.60016 16.87375 38026 ft 427 kts 226°
2026-05-07 17:38 55.55880 16.79809 38032 ft 428 kts 226°
2026-05-07 17:38 55.51726 16.72259 38041 ft 429 kts 226°
2026-05-07 17:39 55.47563 16.64702 38050 ft 430 kts 226°
2026-05-07 17:39 55.43395 16.57148 38057 ft 430 kts 226°
2026-05-07 17:40 55.39214 16.49606 38061 ft 431 kts 226°
2026-05-07 17:40 55.35022 16.42076 38064 ft 431 kts 226°
2026-05-07 17:41 55.30821 16.34556 38068 ft 431 kts 226°
2026-05-07 17:41 55.26620 16.27036 38069 ft 432 kts 226°
2026-05-07 17:42 55.22406 16.19529 38070 ft 432 kts 226°
2026-05-07 17:42 55.18182 16.12036 38073 ft 432 kts 226°
2026-05-07 17:43 55.13981 16.04603 38073 ft 433 kts 225°
2026-05-07 17:43 55.09743 15.97125 38074 ft 433 kts 225°
2026-05-07 17:44 55.05500 15.89661 38078 ft 433 kts 225°
2026-05-07 17:44 55.01249 15.82203 38075 ft 434 kts 225°
2026-05-07 17:45 54.96987 15.74759 38079 ft 434 kts 225°
2026-05-07 17:45 54.92716 15.67332 38078 ft 434 kts 225°
2026-05-07 17:46 54.88041 15.60688 38079 ft 435 kts 218°
2026-05-07 17:46 54.83233 15.54314 38079 ft 435 kts 218°
2026-05-07 17:47 54.78422 15.47939 38084 ft 435 kts 218°
2026-05-07 17:47 54.73596 15.41588 38083 ft 436 kts 218°
2026-05-07 17:48 54.68765 15.35253 38085 ft 436 kts 218°
2026-05-07 17:48 54.63928 15.28928 38083 ft 436 kts 218°
2026-05-07 17:49 54.59124 15.22652 38086 ft 436 kts 218°
2026-05-07 17:49 54.54278 15.16356 38084 ft 436 kts 217°
2026-05-07 17:50 54.49395 15.10020 38085 ft 437 kts 217°
2026-05-07 17:50 54.44572 15.03784 38086 ft 437 kts 217°
2026-05-07 17:51 54.39383 14.98273 38096 ft 438 kts 204°
2026-05-07 17:51 54.33844 14.94112 38087 ft 438 kts 205°
2026-05-07 17:52 54.28273 14.89914 38092 ft 438 kts 205°
2026-05-07 17:52 54.22689 14.85696 38087 ft 438 kts 205°
2026-05-07 17:53 54.17107 14.81491 38086 ft 439 kts 205°
2026-05-07 17:53 54.11522 14.77303 38083 ft 439 kts 205°
2026-05-07 17:54 54.05932 14.73126 38083 ft 439 kts 204°
2026-05-07 17:54 54.00344 14.68965 38089 ft 439 kts 204°
2026-05-07 17:55 53.94749 14.64817 38097 ft 439 kts 204°
2026-05-07 17:55 53.89152 14.60673 38103 ft 439 kts 204°
2026-05-07 17:56 53.83551 14.56528 38113 ft 440 kts 204°
2026-05-07 17:56 53.77940 14.52402 38113 ft 440 kts 204°
2026-05-07 17:57 53.73234 14.48953 38115 ft 440 kts 204°
2026-05-07 17:57 53.66708 14.44171 38114 ft 440 kts 204°
2026-05-07 17:58 53.61085 14.40069 38103 ft 440 kts 204°
2026-05-07 17:58 53.55459 14.35978 38098 ft 440 kts 204°
2026-05-07 17:59 53.49966 14.31473 38093 ft 439 kts 214°
2026-05-07 17:59 53.45086 14.25335 38091 ft 439 kts 218°
2026-05-07 18:00 53.40215 14.19160 38094 ft 439 kts 217°
2026-05-07 18:00 53.35329 14.13005 38089 ft 440 kts 217°
2026-05-07 18:01 53.30433 14.06847 38098 ft 440 kts 217°
2026-05-07 18:01 53.26304 14.01878 38097 ft 441 kts 209°
2026-05-07 18:02 53.20411 13.99401 38098 ft 443 kts 183°
2026-05-07 18:02 53.17332 13.99277 38088 ft 443 kts 182°
2026-05-07 18:03 53.11164 13.99113 38085 ft 444 kts 182°
2026-05-07 18:03 53.04987 13.98977 38081 ft 444 kts 182°
2026-05-07 18:04 52.98813 13.98803 38083 ft 444 kts 182°
2026-05-07 18:04 52.92643 13.98597 37951 ft 443 kts 182°
2026-05-07 18:04 52.89566 13.98499 37269 ft 442 kts 182°
2026-05-07 18:05 52.86488 13.98405 36542 ft 443 kts 182°
2026-05-07 18:05 52.83408 13.98314 35804 ft 443 kts 182°
2026-05-07 18:05 52.80332 13.98224 35208 ft 442 kts 182°
2026-05-07 18:05 52.77253 13.98140 34686 ft 443 kts 181°
2026-05-07 18:06 52.74172 13.98056 34172 ft 443 kts 181°
2026-05-07 18:06 52.71095 13.97967 33575 ft 443 kts 181°
2026-05-07 18:06 52.68009 13.97879 32970 ft 444 kts 181°
2026-05-07 18:06 52.64909 13.97791 32391 ft 446 kts 181°
2026-05-07 18:07 52.61799 13.97697 31797 ft 448 kts 181°
2026-05-07 18:07 52.58673 13.97602 31245 ft 451 kts 180°
2026-05-07 18:07 52.55520 13.97511 30695 ft 454 kts 180°
2026-05-07 18:07 52.52368 13.97418 30150 ft 453 kts 180°
2026-05-07 18:08 52.49268 13.97325 29524 ft 451 kts 180°
2026-05-07 18:08 52.46142 13.97230 28899 ft 447 kts 180°
2026-05-07 18:08 52.43043 13.97141 28296 ft 443 kts 180°
2026-05-07 18:08 52.39971 13.97054 27690 ft 440 kts 180°
2026-05-07 18:09 52.36929 13.96971 27111 ft 436 kts 181°
2026-05-07 18:09 52.33910 13.96889 26535 ft 432 kts 181°
2026-05-07 18:09 52.30917 13.96803 25951 ft 428 kts 181°
2026-05-07 18:09 52.27947 13.96715 25415 ft 425 kts 181°
2026-05-07 18:10 52.25004 13.96630 24870 ft 421 kts 181°
2026-05-07 18:10 52.22083 13.96545 24349 ft 418 kts 181°
2026-05-07 18:10 52.19183 13.96460 23819 ft 415 kts 181°
2026-05-07 18:10 52.16308 13.96378 23229 ft 412 kts 181°
2026-05-07 18:11 52.13459 13.96298 22620 ft 408 kts 181°
2026-05-07 18:11 52.10632 13.96218 22026 ft 404 kts 181°
2026-05-07 18:11 52.07835 13.96140 21443 ft 400 kts 181°
2026-05-07 18:11 52.05065 13.96062 20869 ft 396 kts 181°
2026-05-07 18:12 52.02322 13.95981 20310 ft 393 kts 181°
2026-05-07 18:12 51.99603 13.95902 19757 ft 389 kts 181°
2026-05-07 18:12 51.96909 13.95828 19220 ft 385 kts 181°
2026-05-07 18:12 51.94242 13.95758 18692 ft 382 kts 182°
2026-05-07 18:13 51.91596 13.95686 18137 ft 378 kts 182°
2026-05-07 18:13 51.89011 13.95140 17534 ft 373 kts 197°
2026-05-07 18:13 51.86674 13.93412 16948 ft 369 kts 214°
2026-05-07 18:13 51.84783 13.90647 16376 ft 366 kts 230°
2026-05-07 18:14 51.83146 13.87509 15816 ft 364 kts 230°
2026-05-07 18:14 51.81528 13.84400 15369 ft 359 kts 230°
2026-05-07 18:14 51.79930 13.81332 14888 ft 355 kts 230°
2026-05-07 18:14 51.78344 13.78291 14388 ft 353 kts 230°
2026-05-07 18:15 51.76769 13.75271 13875 ft 350 kts 230°
2026-05-07 18:15 51.75201 13.72278 13302 ft 348 kts 229°
2026-05-07 18:15 51.73642 13.69308 12739 ft 345 kts 229°
2026-05-07 18:15 51.72096 13.66367 12222 ft 343 kts 229°
2026-05-07 18:16 51.70554 13.63437 12059 ft 342 kts 229°
2026-05-07 18:16 51.69010 13.60507 12082 ft 343 kts 229°
2026-05-07 18:16 51.67464 13.57579 12081 ft 343 kts 229°
2026-05-07 18:16 51.65917 13.54656 12086 ft 343 kts 229°
2026-05-07 18:17 51.64388 13.51775 12081 ft 343 kts 229°
2026-05-07 18:17 51.62841 13.48850 12079 ft 343 kts 229°
2026-05-07 18:17 51.61296 13.45928 12080 ft 343 kts 229°
2026-05-07 18:17 51.59749 13.43009 12082 ft 343 kts 229°
2026-05-07 18:18 51.58199 13.40093 12081 ft 343 kts 229°
2026-05-07 18:18 51.56646 13.37179 12082 ft 343 kts 229°
2026-05-07 18:18 51.55094 13.34266 12084 ft 343 kts 229°
2026-05-07 18:18 51.53617 13.31265 12080 ft 343 kts 238°
2026-05-07 18:19 51.52559 13.27832 12085 ft 343 kts 245°
2026-05-07 18:19 51.51572 13.24340 12086 ft 343 kts 245°
2026-05-07 18:19 51.50588 13.20844 12083 ft 343 kts 245°
2026-05-07 18:19 51.49606 13.17352 12087 ft 343 kts 245°
2026-05-07 18:20 51.48624 13.13863 12083 ft 343 kts 245°
2026-05-07 18:20 51.47640 13.10377 12081 ft 343 kts 245°
2026-05-07 18:20 51.46653 13.06888 12084 ft 343 kts 245°
2026-05-07 18:20 51.45668 13.03408 12085 ft 343 kts 245°
2026-05-07 18:21 51.44680 12.99927 12088 ft 343 kts 245°
2026-05-07 18:21 51.43690 12.96450 12087 ft 343 kts 245°
2026-05-07 18:21 51.42701 12.92977 12087 ft 343 kts 245°
2026-05-07 18:21 51.41710 12.89507 12088 ft 342 kts 245°
2026-05-07 18:22 51.40719 12.86040 12092 ft 342 kts 245°
2026-05-07 18:22 51.40062 12.83746 12088 ft 342 kts 245°
2026-05-07 18:22 51.38731 12.79115 12087 ft 342 kts 245°
2026-05-07 18:22 51.37731 12.75658 12085 ft 342 kts 245°
2026-05-07 18:23 51.36726 12.72201 12087 ft 342 kts 245°
2026-05-07 18:23 51.35716 12.68751 12090 ft 343 kts 245°
2026-05-07 18:23 51.34700 12.65301 12087 ft 343 kts 245°
2026-05-07 18:23 51.33678 12.61858 12087 ft 343 kts 245°
2026-05-07 18:24 51.32677 12.58395 12086 ft 343 kts 250°
2026-05-07 18:24 51.32192 12.54680 12086 ft 342 kts 264°
2026-05-07 18:24 51.31949 12.50892 12084 ft 343 kts 265°
2026-05-07 18:24 51.31714 12.47099 12031 ft 341 kts 265°
2026-05-07 18:25 51.31480 12.43355 11513 ft 338 kts 265°
2026-05-07 18:25 51.31245 12.39634 10958 ft 335 kts 265°
2026-05-07 18:25 51.31010 12.35941 10436 ft 333 kts 265°
2026-05-07 18:25 51.30778 12.32333 10267 ft 319 kts 265°
2026-05-07 18:26 51.30556 12.28890 10145 ft 305 kts 266°
2026-05-07 18:26 51.30568 12.25583 10018 ft 291 kts 274°
2026-05-07 18:26 51.30699 12.22407 9806 ft 283 kts 275°
2026-05-07 18:26 51.30837 12.19292 9428 ft 280 kts 275°
2026-05-07 18:27 51.30973 12.16236 9028 ft 279 kts 275°
2026-05-07 18:27 51.31109 12.13118 8615 ft 277 kts 275°
2026-05-07 18:27 51.31240 12.10095 8215 ft 275 kts 275°
2026-05-07 18:27 51.31370 12.07051 7796 ft 274 kts 275°
2026-05-07 18:28 51.31497 12.04019 7381 ft 273 kts 275°
2026-05-07 18:28 51.31622 12.01001 6967 ft 271 kts 275°
2026-05-07 18:28 51.31744 11.97998 6559 ft 270 kts 275°
2026-05-07 18:28 51.31863 11.95017 6128 ft 268 kts 275°
2026-05-07 18:29 51.31983 11.92052 5698 ft 266 kts 276°
2026-05-07 18:29 51.32495 11.89262 5266 ft 261 kts 302°
2026-05-07 18:29 51.33731 11.87234 4587 ft 256 kts 331°
2026-05-07 18:29 51.35416 11.86433 4237 ft 249 kts 353°
2026-05-07 18:30 51.37092 11.86121 4100 ft 236 kts 355°
2026-05-07 18:30 51.38677 11.86269 3924 ft 225 kts 20°
2026-05-07 18:30 51.40015 11.87508 3607 ft 222 kts 40°
2026-05-07 18:30 51.41026 11.89362 3265 ft 222 kts 58°
2026-05-07 18:31 51.41610 11.91625 3026 ft 220 kts 76°
2026-05-07 18:31 51.41785 11.94074 3012 ft 223 kts 84°
2026-05-07 18:31 51.41908 11.96521 3014 ft 224 kts 84°
2026-05-07 18:31 51.42029 11.98931 3012 ft 210 kts 84°
2026-05-07 18:32 51.42140 12.01194 2943 ft 200 kts 84°
2026-05-07 18:32 51.42246 12.03357 2753 ft 189 kts 84°
2026-05-07 18:32 51.42346 12.05415 2496 ft 180 kts 84°
2026-05-07 18:32 51.42439 12.07331 2245 ft 166 kts 84°
2026-05-07 18:33 51.42526 12.09117 2038 ft 156 kts 84°
2026-05-07 18:33 51.42606 12.10785 1834 ft 146 kts 84°
2026-05-07 18:33 51.42680 12.12327 1644 ft 134 kts 83°
2026-05-07 18:33 51.42751 12.13786 1452 ft 130 kts 83°
2026-05-07 18:34 51.42820 12.15216 1263 ft 128 kts 83°
2026-05-07 18:34 51.42888 12.16640 1090 ft 128 kts 83°
2026-05-07 18:34 51.42955 12.18062 903 ft 128 kts 83°
2026-05-07 18:34 51.43023 12.19488 738 ft 128 kts 83°
2026-05-07 18:35 51.43090 12.20910 574 ft 128 kts 83°
2026-05-07 18:35 51.43158 12.22316 437 ft 121 kts 83°
2026-05-07 18:35 51.43206 12.23324 437 ft 56 kts 85°
2026-05-07 18:35 51.43231 12.23880 446 ft 46 kts 86°
2026-05-07 18:36 51.43248 12.24243 431 ft 27 kts 86°
2026-05-07 18:36 51.43226 12.24536 446 ft 26 kts 108°
2026-05-07 18:36 51.43151 12.24805 448 ft 23 kts 116°
2026-05-07 18:36 51.43109 12.24945 449 ft 7 kts 115°
2026-05-07 18:37 51.43093 12.24999 450 ft 4 kts 115°
2026-05-07 18:37 51.43074 12.25064 450 ft 9 kts 115°
2026-05-07 18:37 51.43016 12.25116 449 ft 15 kts 183°
2026-05-07 18:37 51.42877 12.25067 451 ft 21 kts 193°
2026-05-07 18:38 51.42753 12.25016 457 ft 15 kts 196°
2026-05-07 18:38 51.42656 12.24979 463 ft 20 kts 193°
2026-05-07 18:38 51.42490 12.24916 472 ft 24 kts 193°
2026-05-07 18:38 51.42337 12.24857 481 ft 21 kts 193°
2026-05-07 18:39 51.42217 12.24810 490 ft 14 kts 193°
2026-05-07 18:39 51.42103 12.24767 491 ft 19 kts 193°
2026-05-07 18:39 51.41960 12.24711 491 ft 22 kts 193°
2026-05-07 18:39 51.41807 12.24654 476 ft 21 kts 193°
2026-05-07 18:40 51.41697 12.24610 480 ft 11 kts 195°
2026-05-07 18:40 51.41655 12.24490 479 ft 18 kts 266°
2026-05-07 18:40 51.41645 12.24280 478 ft 19 kts 265°
2026-05-07 18:40 51.41634 12.24055 476 ft 22 kts 266°
2026-05-07 18:41 51.41622 12.23794 474 ft 25 kts 265°
2026-05-07 18:41 51.41610 12.23532 472 ft 25 kts 265°
2026-05-07 18:41 51.41599 12.23294 471 ft 17 kts 268°
2026-05-07 18:41 51.41624 12.23093 469 ft 20 kts 285°
2026-05-07 18:42 51.41664 12.22859 458 ft 22 kts 285°
2026-05-07 18:42 51.41705 12.22621 447 ft 22 kts 285°
2026-05-07 18:42 51.41747 12.22376 438 ft 23 kts 285°
2026-05-07 18:42 51.41791 12.22118 436 ft 25 kts 285°
2026-05-07 18:43 51.41826 12.21912 426 ft 12 kts 285°
2026-05-07 18:43 51.41847 12.21851 425 ft 6 kts 330°
2026-05-07 18:43 51.41896 12.21863 436 ft 7 kts 15°
2026-05-07 18:43 51.41930 12.21878 431 ft 2 kts 15°
2026-05-07 18:44 51.41937 12.21881 433 ft 1 kts 15°